Regional Weather Roundup
Issued by NWS Little Rock, AR

Home | Current Version | Previous Version | Graphics & Text | Print | Product List | Glossary On
Versions: 1 2 3 4 5 6 7 8 9 10 11 12 13 14 15 16 17 18 19 20 21 22 23 24 25 26 27 28 29 30 31 32 33 34 35 36 37 38 39 40 41 42 43 44 45 46 47 48 49 50
000
ASUS44 KLZK 070805
RWRLZK

WEATHER ROUNDUP FOR ARKANSAS
NATIONAL WEATHER SERVICE LITTLE ROCK AR
300 AM CDT TUE JUL 07 2015

NOTE: "FAIR" INDICATES FEW OR NO CLOUDS BELOW 12,000 FEET WITH NO
SIGNIFICANT WEATHER AND/OR OBSTRUCTIONS TO VISIBILITY.

ARZ001-003-010-029-070900-
NORTHWEST ARKANSAS

CITY           SKY/WX    TMP DP  RH WIND       PRES   REMARKS
FAYETTEVILLE   CLOUDY    76  70  82 S12       29.95F
FORT SMITH     CLOUDY    78  71  79 E3        29.93F
HARRISON       CLOUDY    76  70  82 S8        29.97F
BENTONVILLE    CLOUDY    79  66  65 SW8G16    29.95F
ROGERS         CLOUDY    78  69  73 S15G22    29.95F
SILOAM SPGS    CLOUDY    77  66  69 S12G18    29.95F
HIGHFILL       CLOUDY    78  70  76 S13       29.94F
$$

ARZ004-005-016-070900-
NORTH CENTRAL ARKANSAS

CITY           SKY/WX    TMP DP  RH WIND       PRES   REMARKS
BATESVILLE     CLOUDY    77  73  88 S8        29.97F
FLIPPIN        MOCLDY    79  70  73 SW6       29.93S
MTN HOME       MOCLDY    76  72  87 S5        29.96S
$$

ARZ040-041-070900-
WEST CENTRAL ARKANSAS

CITY           SKY/WX    TMP DP  RH WIND       PRES   REMARKS
MENA           MOCLDY    79  72  78 S9        30.00F
MOUNT IDA      MOCLDY    80  70  71 VRB5      29.98F
$$

ARZ009-017-025-026-028-070900-
NORTHEAST ARKANSAS

CITY           SKY/WX    TMP DP  RH WIND       PRES   REMARKS
JONESBORO      CLOUDY    77  75  93 S7        29.97F
NEWPORT        CLOUDY    78  77  97 S15       29.98F
WALNUT RIDGE   CLOUDY    77  73  88 S8        29.96S
BLYTHEVILLE    MOCLDY    76  75  97 S8        29.99F
$$

ARZ022-023-033-042-044-070900-
CENTRAL ARKANSAS

CITY           SKY/WX    TMP DP  RH WIND       PRES   REMARKS
LITTLE ROCK    PTCLDY    79  72  79 S9        30.00F
N LITTLE ROCK    N/A     78  75  89 SW8       30.00F
JACKSONVILLE   PTCLDY    78  74  87 S6        29.99S
SEARCY         MOCLDY    78  75  90 SW8       30.00S
HOT SPRINGS    CLOUDY    80  71  74 SW8       30.01F
RUSSELLVILLE   MOCLDY    78  74  87 VRB6      29.96F
CLINTON        FAIR      73  73 100 CALM      29.99F FOG
$$

ARZ036-070900-
EAST ARKANSAS

CITY           SKY/WX    TMP DP  RH WIND       PRES   REMARKS
WEST MEMPHIS   MOCLDY    78  76  93 S9        29.99F
$$

ARZ050-053-066-070-073-070900-
SOUTHWEST ARKANSAS

CITY           SKY/WX    TMP DP  RH WIND       PRES   REMARKS
ARKADELPHIA    FAIR      77  76  96 S5        30.02S
CAMDEN         MOCLDY    77  72  83 MISG      30.02F
TEXARKANA      CLOUDY    77  72  84 S13       30.01F
EL DORADO      MOCLDY    76  72  87 S8        30.04F
DE QUEEN       MOCLDY    78  71  79 S6        29.97F
$$

ARZ056-057-069-070900-
SOUTHEAST ARKANSAS

CITY           SKY/WX    TMP DP  RH WIND       PRES   REMARKS
PINE BLUFF     MOCLDY    77  74  90 S10       30.02F
STUTTGART      MOCLDY    79  72  78 MISG      30.00S
MONTICELLO     MOCLDY    78  75  90 SW10      30.04F

$$




USA.gov is the U.S. government's official web portal to all federal, state and local government web resources and services.